When you browse on this site, cookies collect data to enhance your experience and personalize the content and advertising you see.
Visit our Privacy Policy to learn more. By continuing to use the site, you agree to this use of cookies and data.
  • In Czech Republic
  • List of Countries
  • For 7 days
  • Water Temperature
  • Satellite Maps
  • Weather Map
  • Weather Widgets
  • user-avatar
    Login

    Hourly Weather Rangpur

    Today, 20 March, Wednesday

    Time Temperature Precipitation Wind Pressure Humidity
    00:00 +26°C° 0 mm 1 mps 755 mmHg 30%
    01:00 +26°C° 0 mm 1 mps 755 mmHg 32%
    02:00 +25°C° 0 mm 2 mps 754 mmHg 35%
    03:00 +24°C° 0 mm 2 mps 754 mmHg 37%
    04:00 +24°C° 0 mm 2 mps 754 mmHg 43%
    05:00 +23°C° 0 mm 2 mps 755 mmHg 48%
    06:00 +23°C° 0 mm 2 mps 755 mmHg 53%
    07:00 +24°C° 0 mm 2 mps 755 mmHg 51%
    08:00 +25°C° 0 mm 2 mps 755 mmHg 49%
    09:00 +27°C° 0 mm 3 mps 756 mmHg 47%
    10:00 +29°C° 0 mm 2 mps 755 mmHg 39%
    11:00 +31°C° 0 mm 2 mps 755 mmHg 32%
    12:00 +34°C° 0 mm 2 mps 755 mmHg 25%
    13:00 +35°C° 0 mm 3 mps 754 mmHg 21%
    14:00 +36°C° 0 mm 4 mps 754 mmHg 17%
    15:00 +37°C° 0 mm 5 mps 753 mmHg 13%
    16:00 +36°C° 0 mm 4 mps 753 mmHg 15%
    17:00 +34°C° 0 mm 3 mps 753 mmHg 16%
    18:00 +33°C° 0 mm 3 mps 753 mmHg 18%
    19:00 +31°C° 0 mm 3 mps 753 mmHg 18%
    20:00 +30°C° 0 mm 2 mps 754 mmHg 19%
    21:00 +29°C° 0 mm 2 mps 754 mmHg 19%
    22:00 +28°C° 0 mm 2 mps 754 mmHg 22%
    23:00 +27°C° 0 mm 1 mps 755 mmHg 24%

    Tomorrow, 21 March, Thursday

    Time Temperature Precipitation Wind Pressure Humidity
    00:00 +26°C° 0 mm 1 mps 755 mmHg 26%
    01:00 +26°C° 0 mm 1 mps 754 mmHg 27%
    02:00 +25°C° 0 mm 2 mps 754 mmHg 29%
    03:00 +25°C° 0 mm 2 mps 753 mmHg 30%
    04:00 +24°C° 0 mm 2 mps 754 mmHg 33%
    05:00 +23°C° 0 mm 2 mps 754 mmHg 35%
    06:00 +23°C° 0 mm 2 mps 754 mmHg 38%
    07:00 +24°C° 0 mm 3 mps 755 mmHg 38%
    08:00 +26°C° 0 mm 3 mps 755 mmHg 38%
    09:00 +27°C° 0 mm 3 mps 756 mmHg 38%
    10:00 +29°C° 0 mm 3 mps 756 mmHg 34%
    11:00 +31°C° 0 mm 2 mps 756 mmHg 29%
    12:00 +33°C° 0 mm 1 mps 755 mmHg 24%
    13:00 +35°C° 0 mm 3 mps 754 mmHg 21%
    14:00 +36°C° 0 mm 4 mps 753 mmHg 19%
    15:00 +37°C° 0 mm 5 mps 752 mmHg 16%
    16:00 +37°C° 0 mm 5 mps 752 mmHg 17%
    17:00 +36°C° 0 mm 4 mps 752 mmHg 18%
    18:00 +35°C° 0 mm 3 mps 752 mmHg 19%
    19:00 +34°C° 0 mm 3 mps 753 mmHg 21%
    20:00 +31°C° 0 mm 2 mps 753 mmHg 23%
    21:00 +30°C° 0 mm 2 mps 754 mmHg 24%
    22:00 +29°C° 0 mm 3 mps 754 mmHg 28%
    23:00 +28°C° 0 mm 3 mps 754 mmHg 32%

    Day after tomorrow, 22 March, Friday

    Time Temperature Precipitation Wind Pressure Humidity
    00:00 +27°C° 0 mm 3 mps 754 mmHg 36%
    01:00 +27°C° 0 mm 3 mps 754 mmHg 37%
    02:00 +26°C° 0 mm 3 mps 754 mmHg 39%
    03:00 +26°C° 0 mm 3 mps 753 mmHg 41%
    04:00 +25°C° 0 mm 3 mps 754 mmHg 42%
    05:00 +25°C° 0 mm 4 mps 754 mmHg 44%
    06:00 +23°C° 0 mm 4 mps 754 mmHg 45%
    07:00 +26°C° 0 mm 4 mps 755 mmHg 43%
    08:00 +27°C° 0 mm 4 mps 755 mmHg 41%
    09:00 +28°C° 0 mm 5 mps 756 mmHg 39%
    10:00 +30°C° 0 mm 4 mps 756 mmHg 35%
    11:00 +33°C° 0 mm 3 mps 755 mmHg 31%
    12:00 +35°C° 0 mm 3 mps 755 mmHg 26%
    13:00 +36°C° 0 mm 3 mps 754 mmHg 24%
    14:00 +37°C° 0 mm 3 mps 753 mmHg 22%
    15:00 +38°C° 0 mm 3 mps 752 mmHg 19%
    16:00 +38°C° 0 mm 3 mps 752 mmHg 20%
    17:00 +37°C° 0 mm 3 mps 751 mmHg 20%
    18:00 +36°C° 0 mm 3 mps 751 mmHg 20%
    19:00 +35°C° 0 mm 2 mps 752 mmHg 22%
    20:00 +32°C° 0 mm 2 mps 752 mmHg 24%
    21:00 +31°C° 0 mm 2 mps 753 mmHg 26%
    22:00 +30°C° 0 mm 2 mps 753 mmHg 29%
    23:00 +29°C° 0 mm 3 mps 753 mmHg 31%

    23 March, Saturday

    Time Temperature Precipitation Wind Pressure Humidity
    00:00 +28°C° 0 mm 3 mps 753 mmHg 33%
    01:00 +28°C° 0 mm 3 mps 753 mmHg 36%
    02:00 +27°C° 0 mm 3 mps 752 mmHg 38%
    03:00 +27°C° 0 mm 3 mps 752 mmHg 41%
    04:00 +26°C° 0 mm 3 mps 753 mmHg 44%
    05:00 +25°C° 0 mm 3 mps 753 mmHg 47%
    06:00 +25°C° 0 mm 4 mps 753 mmHg 50%
    07:00 +26°C° 0 mm 4 mps 754 mmHg 49%
    08:00 +28°C° 0 mm 3 mps 754 mmHg 48%
    09:00 +29°C° 0 mm 3 mps 755 mmHg 47%
    10:00 +31°C° 0 mm 3 mps 755 mmHg 42%
    11:00 +34°C° 0 mm 2 mps 754 mmHg 37%
    12:00 +35°C° 0 mm 1 mps 754 mmHg 32%
    13:00 +37°C° 0 mm 3 mps 753 mmHg 26%
    14:00 +38°C° 0 mm 4 mps 752 mmHg 20%
    15:00 +40°C° 0 mm 5 mps 751 mmHg 14%
    16:00 +39°C° 0 mm 5 mps 751 mmHg 15%
    17:00 +37°C° 0 mm 4 mps 751 mmHg 15%
    18:00 +36°C° 0 mm 3 mps 751 mmHg 15%
    19:00 +35°C° 0 mm 3 mps 751 mmHg 16%
    20:00 +33°C° 0 mm 3 mps 752 mmHg 17%
    21:00 +31°C° 0 mm 3 mps 753 mmHg 17%
    22:00 +30°C° 0 mm 3 mps 753 mmHg 19%
    23:00 +29°C° 0 mm 2 mps 753 mmHg 21%

    24 March, Sunday

    Time Temperature Precipitation Wind Pressure Humidity
    00:00 +28°C° 0 mm 2 mps 753 mmHg 24%
    01:00 +28°C° 0 mm 1 mps 752 mmHg 25%
    02:00 +27°C° 0 mm 1 mps 752 mmHg 27%
    03:00 +26°C° 0 mm 1 mps 752 mmHg 29%
    04:00 +25°C° 0 mm 1 mps 752 mmHg 33%
    05:00 +25°C° 0 mm 2 mps 753 mmHg 36%
    06:00 +24°C° 0 mm 2 mps 753 mmHg 39%
    07:00 +26°C° 0 mm 3 mps 753 mmHg 38%
    08:00 +27°C° 0 mm 3 mps 754 mmHg 36%
    09:00 +29°C° 0 mm 3 mps 754 mmHg 34%
    10:00 +31°C° 0 mm 3 mps 754 mmHg 29%
    11:00 +34°C° 0 mm 2 mps 754 mmHg 24%
    12:00 +36°C° 0 mm 2 mps 753 mmHg 18%
    13:00 +37°C° 0 mm 2 mps 753 mmHg 17%
    14:00 +37°C° 0 mm 3 mps 752 mmHg 15%
    15:00 +38°C° 0 mm 4 mps 751 mmHg 13%
    16:00 +37°C° 0 mm 3 mps 751 mmHg 14%
    17:00 +36°C° 0 mm 3 mps 751 mmHg 15%
    18:00 +35°C° 0 mm 2 mps 752 mmHg 17%
    19:00 +34°C° 0 mm 2 mps 752 mmHg 17%
    20:00 +32°C° 0 mm 2 mps 753 mmHg 16%
    21:00 +31°C° 0 mm 2 mps 753 mmHg 16%
    22:00 +30°C° 0 mm 2 mps 753 mmHg 19%
    23:00 +29°C° 0 mm 2 mps 753 mmHg 22%

    25 March, Monday

    Time Temperature Precipitation Wind Pressure Humidity
    00:00 +28°C° 0 mm 2 mps 753 mmHg 25%
    01:00 +27°C° 0 mm 2 mps 753 mmHg 27%
    02:00 +27°C° 0 mm 2 mps 753 mmHg 29%
    03:00 +26°C° 0 mm 2 mps 753 mmHg 31%
    04:00 +25°C° 0 mm 2 mps 753 mmHg 32%
    05:00 +25°C° 0 mm 3 mps 753 mmHg 34%
    06:00 +24°C° 0 mm 3 mps 754 mmHg 36%
    07:00 +26°C° 0 mm 3 mps 754 mmHg 32%
    08:00 +28°C° 0 mm 3 mps 755 mmHg 29%
    09:00 +30°C° 0 mm 4 mps 756 mmHg 26%
    10:00 +31°C° 0 mm 3 mps 755 mmHg 23%
    11:00 +34°C° 0 mm 3 mps 755 mmHg 20%
    12:00 +36°C° 0 mm 3 mps 755 mmHg 18%
    13:00 +37°C° 0 mm 3 mps 754 mmHg 16%
    14:00 +38°C° 0 mm 2 mps 753 mmHg 14%
    15:00 +38°C° 0 mm 2 mps 753 mmHg 12%
    16:00 +38°C° 0 mm 2 mps 753 mmHg 14%
    17:00 +37°C° 0 mm 2 mps 753 mmHg 15%
    18:00 +35°C° 0 mm 1 mps 753 mmHg 16%
    19:00 +34°C° 0 mm 1 mps 754 mmHg 17%
    20:00 +33°C° 0 mm 1 mps 754 mmHg 18%
    21:00 +31°C° 0 mm 1 mps 755 mmHg 18%
    22:00 +30°C° 0 mm 2 mps 755 mmHg 21%
    23:00 +30°C° 0 mm 2 mps 755 mmHg 24%
    Show more